OMD1106 NZAA-NSTU

Flight info

Callsign OMD1106
Flight time N/A
Altitude 39000
Route ELPAK B575 DRAWN
Aircraft A20N/M-SDE2E3FGHIRWXY/LB1

Departure

Time 2026-05-06 00:44
Airport Auckland International Airport (NZAA)

Arrival

Time N/A
Airport Pago Pago International Airport (NSTU)
Time Latitude Longitude Altitude Speed Heading
2026-05-05 23:33 -37.00862 174.77926 25 ft 0 kts 251°
2026-05-06 00:35 -37.00859 174.77937 29 ft 1 kts 251°
2026-05-06 00:35 -37.00856 174.77949 27 ft 1 kts 251°
2026-05-06 00:36 -37.00853 174.77960 30 ft 1 kts 251°
2026-05-06 00:36 -37.00850 174.77972 30 ft 1 kts 251°
2026-05-06 00:36 -37.00847 174.77984 29 ft 1 kts 251°
2026-05-06 00:36 -37.00844 174.77995 30 ft 1 kts 251°
2026-05-06 00:37 -37.00840 174.78007 29 ft 1 kts 237°
2026-05-06 00:37 -37.00834 174.78017 26 ft 1 kts 214°
2026-05-06 00:37 -37.00826 174.78023 30 ft 1 kts 181°
2026-05-06 00:37 -37.00818 174.78021 30 ft 0 kts 161°
2026-05-06 00:39 -37.00819 174.78022 30 ft 1 kts 161°
2026-05-06 00:40 -37.00859 174.78039 22 ft 14 kts 161°
2026-05-06 00:40 -37.01000 174.78103 27 ft 27 kts 163°
2026-05-06 00:40 -37.01066 174.78055 27 ft 12 kts 248°
2026-05-06 00:40 -37.01112 174.77885 27 ft 29 kts 251°
2026-05-06 00:41 -37.01207 174.77635 28 ft 28 kts 212°
2026-05-06 00:41 -37.01282 174.77615 26 ft 8 kts 237°
2026-05-06 00:41 -37.01313 174.77537 28 ft 12 kts 251°
2026-05-06 00:41 -37.01343 174.77420 26 ft 16 kts 252°
2026-05-06 00:42 -37.01381 174.77283 27 ft 17 kts 249°
2026-05-06 00:42 -37.01430 174.77131 29 ft 19 kts 229°
2026-05-06 00:42 -37.01554 174.77083 28 ft 20 kts 191°
2026-05-06 00:42 -37.01657 174.76971 23 ft 23 kts 251°
2026-05-06 00:43 -37.01672 174.76768 20 ft 23 kts 266°
2026-05-06 00:43 -37.01699 174.76727 21 ft 3 kts 181°
2026-05-06 00:43 -37.01718 174.76751 22 ft 5 kts 89°
2026-05-06 00:43 -37.01703 174.76826 21 ft 19 kts 70°
2026-05-06 00:44 -37.01559 174.77344 29 ft 104 kts 71°
2026-05-06 00:44 -37.01256 174.78460 182 ft 155 kts 67°
2026-05-06 00:44 -37.00857 174.79803 819 ft 174 kts 67°
2026-05-06 00:44 -37.00462 174.81289 1469 ft 191 kts 68°
2026-05-06 00:45 -36.99953 174.82908 2119 ft 210 kts 66°
2026-05-06 00:45 -36.99388 174.84684 2783 ft 230 kts 66°
2026-05-06 00:45 -36.98806 174.86645 3414 ft 251 kts 68°
2026-05-06 00:45 -36.98211 174.88784 4166 ft 264 kts 69°
2026-05-06 00:46 -36.97625 174.90979 5251 ft 269 kts 69°
2026-05-06 00:46 -36.97031 174.93222 6224 ft 273 kts 69°
2026-05-06 00:46 -36.96435 174.95474 7144 ft 278 kts 69°
2026-05-06 00:46 -36.95814 174.97804 8004 ft 285 kts 69°
2026-05-06 00:47 -36.95162 175.00185 8877 ft 290 kts 64°
2026-05-06 00:47 -36.94033 175.02234 9725 ft 291 kts 40°
2026-05-06 00:47 -36.92286 175.03506 10555 ft 293 kts 15°
2026-05-06 00:47 -36.90264 175.03757 11385 ft 294 kts 357°
2026-05-06 00:48 -36.88228 175.03631 12204 ft 298 kts 356°
2026-05-06 00:48 -36.86131 175.03477 13016 ft 303 kts 356°
2026-05-06 00:48 -36.84008 175.03333 13824 ft 307 kts 356°
2026-05-06 00:48 -36.81851 175.03202 14581 ft 312 kts 356°
2026-05-06 00:49 -36.80410 175.03122 15059 ft 314 kts 356°
2026-05-06 00:49 -36.78209 175.03006 15785 ft 317 kts 356°
2026-05-06 00:49 -36.75259 175.02855 16756 ft 322 kts 356°
2026-05-06 00:49 -36.73771 175.02779 17235 ft 324 kts 356°